Regional Weather Roundup
Issued by NWS Newport/Morehead, NC

Current Version | Previous Version | Text Only | Print | Product List | Glossary On
Versions: 1 2 3 4 5 6 7 8 9 10 11 12 13 14 15 16 17 18 19 20 21 22 23 24 25 26 27 28 29 30 31 32 33 34 35 36 37 38 39 40 41 42 43 44 45 46 47 48 49 50
000
ASUS42 KMHX 060524
RWRMHX
WEATHER ROUNDUP FOR EASTERN NORTH CAROLINA
NATIONAL WEATHER SERVICE NEWPORT/MOREHEAD CITY NC
1200 AM EST FRI MAR 06 2015

NOTE: "FAIR" INDICATES FEW OR NO CLOUDS BELOW 12,000 FEET
WITH NO SIGNIFICANT WEATHER AND/OR OBSTRUCTIONS TO VISIBILITY

NCZ015>017-031-032-045>047-102-103-060600-
NORTH COAST

CITY           SKY/WX    TMP DP  RH WIND       PRES   REMARKS
EDENTON        CLOUDY    31  29  90 N8G16     30.34R
ELIZABETH CITY CLOUDY    30  26  85 N22G30    30.33R WCI  17
KITTY HAWK     CLOUDY    30  30 100 N14G31    30.29R WCI  19
MANTEO         CLOUDY    30  28  91 N20G28    30.31R WCI  17

$$

NCZ045>047-081-094-103-104-060600-
CENTRAL COAST

CITY           SKY/WX    TMP DP  RH WIND       PRES   REMARKS
FRISCO         LGT RAIN  34  33  96 N16G30    30.26R
SWANQUARTER      N/A     32 N/A N/A N10G23    30.27S

$$

NCZ095-097-098-100-101-060600-
SOUTHERN COAST

CITY           SKY/WX    TMP DP  RH WIND       PRES   REMARKS
BEAUFORT       LGT RAIN  35  34  96 N17G25    30.28R
CEDAR ISLAND     N/A     36 N/A N/A N25G37    30.33R
JACKSONVILLE   CLOUDY    35  31  85 N20G29    30.29R
PINEY ISLAND     N/A    N/A N/A N/A MISG      30.28R
WILMINGTON     CLOUDY    36  32  85 N16G30    30.28R


$$

NCZ011>013-027>030-043-044-078>080-089-090>093-098-060600-
COASTAL PLAIN

CITY           SKY/WX    TMP DP  RH WIND       PRES   REMARKS
AHOSKIE        CLOUDY    29  25  84 N15       30.37R WCI  17
CLINTON        CLOUDY    34  30  88 N9G22     30.32F
ELIZABETHTOWN  CLOUDY    35  34  96 N6        30.30F
GOLDSBORO      CLOUDY    33  32  98 N14G21    30.33R
GREENVILLE     CLOUDY    32  30  93 N9        30.34S
HAVELOCK       LGT RAIN  35  30  82 N20G29    30.29R
KENANSVILLE    CLOUDY    33  32  96 N10G20    30.33F
KINSTON        CLOUDY    33  30  88 N14G24    30.35R
NEW BERN       CLOUDY    35  31  85 N14       30.33R
RICHLANDS      CLOUDY    34  30  86 N10G17    30.30F
ROCKY MOUNT    CLOUDY    32  27  81 N12       30.36R
WASHINGTON     CLOUDY    32  29  89 N12G17    30.34R
WHITEVILLE     CLOUDY    36  34  91 N9G17     30.28F

$$

AMZ130-135-150-152-154-156-158-170-250-252-270-ANZ085-086-088-633-658-670-060600-
MARINE OBSERVATIONS

STATION/POSITION TIME  TEMP    WIND        PRES    WAVE   SWELL
                       AIR SEA DIR/SP/G            HT/PER HT/PER
                 (UTC) (F)     (DEG/KT/KT) (MB)    (FT/S) (FT/S)
CHESAPEAKE LIGHT 0500   27     360/ 28/ 31 1027.2
64 E VA BEACH    0450   35 53  350/ 31/ 35 1024.2   12/ 8
DUCK             0500   29 36  360/ 28/ 34 1024.6
2 E DUCK         0411      35                N/A     9/ 8   2/11
10 NE DUCK       NOT AVBL
OREGON INLET     0500   31 43  350/ 24/ 32 1025.7
HATTERAS CG      0500      49  360/ 32/ 40 1024.4
CAPE LOOKOUT     0500          360/ 28/ 31 1024.3
BEAUFORT LAB     0500   36 49  360/ 20/ 25 1024.4
27 SE WRIGHTSVLE NOT AVBL
5 SE WRIGHTSVLE  NOT AVBL
225 S CAPE HAT   0450   74 73  230/ 21/ 25 1019.3    7/ 7   5/ 7
41 SE CHARLESTON 0450   50 68   20/ 27/ 33 1020.3    6/ 5   2/11

$$


USA.gov is the U.S. government's official web portal to all federal, state and local government web resources and services.